QPF
0.01 0.01 0.02 0.03 0.05 0.04 0.06 0.07 0.06 0.06 0.06 0.04 0.02 0.02 0.03 0.04 0.04 0.04 0.04 0.04 0.05 0.05 0.07 0.08 0.09 0.09 0.08 0.07 0.06 0.08 0.08 0.08 0.07 0.06 0.04 0.03 0.04 0.04 0.05 0.07 0.07 0.07 0.08
0.00 0.01 0.01 0.02 0.05 0.05 0.07 0.08 0.06 0.06 0.07 0.06 0.03 0.02 0.02 0.03 0.04 0.05 0.05 0.06 0.06 0.04 0.05 0.07 0.09 0.09 0.10 0.09 0.08 0.08 0.08 0.08 0.08 0.06 0.04 0.04 0.04 0.04 0.04 0.05 0.06 0.08 0.09
0.01 0.01 0.01 0.02 0.05 0.05 0.09 0.09 0.06 0.05 0.06 0.06 0.03 0.02 0.02 0.03 0.04 0.06 0.05 0.06 0.06 0.05 0.05 0.06 0.09 0.12 0.12 0.12 0.10 0.08 0.08 0.08 0.08 0.07 0.05 0.05 0.05 0.04 0.04 0.04 0.06 0.06 0.05
0.01 0.03 0.03 0.04 0.05 0.05 0.09 0.10 0.07 0.07 0.07 0.06 0.04 0.02 0.02 0.03 0.05 0.06 0.06 0.06 0.06 0.05 0.05 0.05 0.08 0.10 0.11 0.14 0.13 0.12 0.12 0.10 0.09 0.09 0.08 0.05 0.04 0.04 0.05 0.05 0.05 0.04 0.03
0.01 0.03 0.04 0.06 0.06 0.06 0.08 0.08 0.09 0.08 0.06 0.04 0.03 0.02 0.02 0.02 0.04 0.06 0.07 0.08 0.09 0.09 0.07 0.06 0.07 0.08 0.12 0.17 0.20 0.20 0.17 0.14 0.14 0.11 0.08 0.07 0.06 0.05 0.04 0.04 0.04 0.03 0.04
0.02 0.04 0.06 0.06 0.07 0.07 0.08 0.08 0.08 0.06 0.05 0.04 0.03 0.02 0.02 0.02 0.03 0.04 0.05 0.08 0.10 0.10 0.09 0.08 0.06 0.06 0.08 0.12 0.17 0.22 0.18 0.15 0.14 0.11 0.10 0.10 0.08 0.07 0.06 0.05 0.05 0.04 0.04
0.02 0.04 0.06 0.06 0.06 0.07 0.08 0.06 0.05 0.04 0.04 0.05 0.04 0.03 0.02 0.02 0.03 0.04 0.05 0.06 0.07 0.06 0.06 0.06 0.06 0.06 0.06 0.06 0.08 0.13 0.15 0.14 0.15 0.14 0.14 0.12 0.11 0.10 0.09 0.08 0.08 0.06 0.05
0.04 0.04 0.05 0.05 0.07 0.10 0.08 0.06 0.04 0.03 0.02 0.03 0.03 0.02 0.02 0.02 0.03 0.03 0.04 0.04 0.05 0.05 0.06 0.06 0.06 0.05 0.06 0.05 0.05 0.08 0.10 0.12 0.16 0.17 0.19 0.20 0.19 0.17 0.15 0.12 0.10 0.07 0.06
0.05 0.05 0.04 0.03 0.06 0.07 0.05 0.05 0.04 0.03 0.02 0.02 0.03 0.03 0.04 0.02 0.01 0.02 0.02 0.03 0.04 0.05 0.05 0.06 0.06 0.04 0.04 0.03 0.03 0.04 0.07 0.09 0.12 0.13 0.13 0.14 0.16 0.17 0.18 0.17 0.13 0.10 0.09
0.05 0.05 0.05 0.05 0.06 0.05 0.04 0.04 0.05 0.05 0.03 0.02 0.03 0.04 0.04 0.03 0.03 0.04 0.04 0.03 0.04 0.04 0.05 0.06 0.05 0.04 0.03 0.02 0.02 0.02 0.03 0.04 0.06 0.09 0.09 0.10 0.12 0.15 0.20 0.25 0.24 0.18 0.13
0.05 0.05 0.05 0.07 0.08 0.08 0.08 0.07 0.08 0.08 0.06 0.05 0.04 0.05 0.04 0.02 0.02 0.03 0.04 0.05 0.04 0.03 0.04 0.05 0.04 0.04 0.03 0.02 0.02 0.02 0.02 0.03 0.03 0.05 0.05 0.07 0.09 0.10 0.12 0.19 0.24 0.18 0.13
0.02 0.02 0.03 0.04 0.05 0.05 0.04 0.05 0.08 0.09 0.07 0.05 0.04 0.04 0.05 0.04 0.02 0.02 0.02 0.03 0.05 0.06 0.04 0.03 0.03 0.03 0.03 0.03 0.03 0.02 0.02 0.03 0.03 0.04 0.04 0.05 0.07 0.08 0.07 0.08 0.12 0.16 0.14
0.01 0.01 0.01 0.02 0.03 0.04 0.02 0.03 0.04 0.05 0.05 0.04 0.05 0.06 0.06 0.05 0.04 0.03 0.03 0.03 0.03 0.04 0.06 0.06 0.04 0.04 0.04 0.03 0.03 0.04 0.03 0.03 0.03 0.04 0.04 0.05 0.06 0.06 0.05 0.06 0.08 0.11 0.14
0.01 0.01 0.01 0.01 0.02 0.03 0.02 0.03 0.03 0.02 0.03 0.03 0.03 0.04 0.04 0.05 0.04 0.03 0.03 0.03 0.02 0.02 0.02 0.03 0.04 0.05 0.06 0.05 0.03 0.04 0.03 0.03 0.03 0.04 0.04 0.04 0.04 0.04 0.04 0.04 0.05 0.07 0.10
0.01 0.01 0.01 0.02 0.02 0.01 0.02 0.03 0.02 0.01 0.02 0.02 0.02 0.02 0.03 0.03 0.03 0.02 0.03 0.02 0.02 0.02 0.01 0.01 0.01 0.02 0.04 0.05 0.06 0.05 0.04 0.05 0.06 0.05 0.04 0.04 0.03 0.03 0.03 0.03 0.04 0.04 0.05
0.01 0.01 0.01 0.01 0.02 0.01 0.01 0.01 0.01 0.01 0.01 0.01 0.01 0.01 0.02 0.02 0.02 0.02 0.02 0.02 0.02 0.02 0.02 0.01 0.01 0.02 0.02 0.02 0.03 0.04 0.02 0.03 0.06 0.08 0.06 0.04 0.04 0.03 0.02 0.02 0.03 0.04 0.05
0.02 0.02 0.01 0.01 0.01 0.00 0.00 0.01 0.01 0.00 0.00 0.01 0.01 0.01 0.01 0.01 0.02 0.01 0.01 0.01 0.03 0.03 0.02 0.01 0.01 0.01 0.01 0.01 0.01 0.03 0.04 0.02 0.02 0.04 0.06 0.05 0.04 0.03 0.03 0.03 0.03 0.03 0.04
0.03 0.02 0.02 0.01 0.01 0.01 0.01 0.01 0.00 0.00 0.00 0.00 0.00 0.00 0.00 0.01 0.01 0.01 0.00 0.01 0.01 0.02 0.02 0.02 0.01 0.01 0.01 0.01 0.01 0.02 0.05 0.06 0.03 0.02 0.03 0.03 0.03 0.03 0.02 0.02 0.02 0.03 0.04
0.02 0.02 0.02 0.01 0.01 0.01 0.01 0.01 0.01 0.01 0.01 0.00 0.01 0.01 0.00 0.00 0.00 0.01 0.01 0.01 0.01 0.01 0.01 0.01 0.01 0.01 0.01 0.02 0.02 0.01 0.03 0.04 0.03 0.02 0.02 0.02 0.03 0.03 0.02 0.02 0.02 0.02 0.02
0.02 0.02 0.02 0.02 0.02 0.02 0.02 0.02 0.02 0.02 0.01 0.00 0.00 0.01 0.00 0.00 0.00 0.01 0.01 0.01 0.01 0.01 0.00 0.01 0.00 0.00 0.01 0.02 0.02 0.02 0.03 0.02 0.02 0.02 0.04 0.03 0.03 0.03 0.03 0.02 0.01 0.01 0.01
0.03 0.02 0.01 0.02 0.02 0.02 0.02 0.02 0.02 0.02 0.01 0.01 0.01 0.01 0.01 0.01 0.01 0.02 0.01 0.01 0.01 0.01 0.01 0.01 0.00 0.00 0.00 0.01 0.01 0.01 0.02 0.02 0.03 0.03 0.03 0.03 0.02 0.02 0.02 0.02 0.02 0.01 0.01
0.03 0.02 0.01 0.01 0.01 0.01 0.02 0.03 0.03 0.02 0.02 0.02 0.01 0.02 0.02 0.02 0.02 0.02 0.02 0.02 0.02 0.01 0.01 0.01 0.01 0.00 0.00 0.01 0.01 0.02 0.01 0.02 0.02 0.03 0.03 0.02 0.02 0.02 0.02 0.01 0.01 0.01 0.01
0.02 0.02 0.02 0.02 0.01 0.01 0.02 0.03 0.03 0.03 0.03 0.03 0.02 0.02 0.02 0.02 0.02 0.02 0.03 0.03 0.03 0.03 0.03 0.02 0.01 0.00 0.01 0.01 0.02 0.02 0.01 0.02 0.02 0.02 0.02 0.03 0.02 0.02 0.01 0.01 0.01 0.01 0.01
0.01 0.01 0.01 0.02 0.01 0.02 0.03 0.04 0.05 0.05 0.04 0.04 0.03 0.02 0.02 0.02 0.02 0.03 0.03 0.03 0.03 0.03 0.03 0.02 0.01 0.01 0.01 0.01 0.03 0.02 0.02 0.02 0.03 0.03 0.03 0.02 0.02 0.02 0.02 0.02 0.01 0.01 0.01
0.02 0.02 0.03 0.03 0.03 0.04 0.05 0.05 0.06 0.06 0.04 0.04 0.03 0.02 0.02 0.02 0.03 0.04 0.04 0.04 0.03 0.02 0.02 0.01 0.01 0.01 0.01 0.01 0.02 0.02 0.02 0.02 0.02 0.03 0.04 0.02 0.02 0.03 0.03 0.03 0.02 0.02 0.01
0.04 0.05 0.06 0.06 0.07 0.06 0.05 0.04 0.04 0.03 0.02 0.02 0.02 0.02 0.03 0.03 0.04 0.05 0.04 0.04 0.03 0.02 0.02 0.02 0.01 0.01 0.01 0.01 0.02 0.01 0.01 0.02 0.01 0.02 0.03 0.03 0.02 0.03 0.03 0.02 0.02 0.02 0.02
MSLP
1018.10 1018.32 1018.48 1018.59 1018.71 1018.83 1018.96 1019.09 1019.20 1019.26 1019.27 1019.24 1019.18 1019.13 1019.10 1019.13 1019.22 1019.38 1019.59 1019.81 1020.04 1020.24 1020.39 1020.51 1020.58 1020.64 1020.69 1020.75 1020.82 1020.91 1021.02 1021.13 1021.24 1021.35 1021.47 1021.58 1021.70 1021.82 1021.93 1022.04 1022.12 1022.18 1022.22
1018.29 1018.51 1018.68 1018.81 1018.93 1019.05 1019.18 1019.30 1019.40 1019.46 1019.46 1019.42 1019.33 1019.24 1019.17 1019.14 1019.16 1019.25 1019.40 1019.59 1019.79 1019.99 1020.18 1020.33 1020.45 1020.54 1020.61 1020.67 1020.72 1020.78 1020.83 1020.90 1020.98 1021.08 1021.19 1021.32 1021.46 1021.60 1021.73 1021.84 1021.92 1021.97 1021.99
1018.36 1018.60 1018.79 1018.95 1019.10 1019.25 1019.39 1019.52 1019.61 1019.66 1019.65 1019.59 1019.49 1019.37 1019.25 1019.15 1019.11 1019.12 1019.19 1019.32 1019.48 1019.67 1019.86 1020.03 1020.19 1020.31 1020.40 1020.46 1020.49 1020.51 1020.53 1020.55 1020.60 1020.67 1020.77 1020.90 1021.05 1021.20 1021.35 1021.47 1021.56 1021.62 1021.64
1018.37 1018.62 1018.85 1019.05 1019.24 1019.42 1019.58 1019.71 1019.81 1019.85 1019.83 1019.75 1019.63 1019.48 1019.32 1019.18 1019.07 1019.01 1019.00 1019.05 1019.16 1019.30 1019.47 1019.64 1019.80 1019.94 1020.04 1020.10 1020.13 1020.12 1020.10 1020.09 1020.10 1020.14 1020.22 1020.34 1020.48 1020.65 1020.80 1020.94 1021.05 1021.12 1021.16
1018.35 1018.62 1018.87 1019.12 1019.36 1019.57 1019.75 1019.89 1019.98 1020.01 1019.98 1019.89 1019.76 1019.59 1019.41 1019.23 1019.07 1018.94 1018.86 1018.83 1018.86 1018.94 1019.05 1019.19 1019.33 1019.46 1019.56 1019.62 1019.63 1019.61 1019.57 1019.53 1019.50 1019.51 1019.57 1019.67 1019.80 1019.96 1020.13 1020.28 1020.40 1020.49 1020.56
1018.34 1018.61 1018.89 1019.18 1019.45 1019.69 1019.89 1020.03 1020.11 1020.13 1020.09 1020.00 1019.87 1019.71 1019.53 1019.33 1019.14 1018.96 1018.81 1018.70 1018.64 1018.63 1018.66 1018.73 1018.83 1018.92 1019.00 1019.04 1019.05 1019.02 1018.96 1018.90 1018.85 1018.84 1018.87 1018.95 1019.07 1019.21 1019.37 1019.53 1019.66 1019.78 1019.87
1018.35 1018.61 1018.91 1019.22 1019.52 1019.78 1019.99 1020.12 1020.19 1020.20 1020.15 1020.07 1019.96 1019.82 1019.67 1019.49 1019.29 1019.09 1018.88 1018.69 1018.53 1018.41 1018.33 1018.31 1018.32 1018.36 1018.39 1018.41 1018.41 1018.37 1018.32 1018.25 1018.19 1018.16 1018.18 1018.23 1018.33 1018.46 1018.61 1018.76 1018.90 1019.02 1019.13
1018.38 1018.62 1018.92 1019.24 1019.55 1019.82 1020.02 1020.15 1020.21 1020.21 1020.17 1020.11 1020.03 1019.94 1019.84 1019.70 1019.52 1019.30 1019.06 1018.79 1018.53 1018.29 1018.10 1017.96 1017.87 1017.82 1017.79 1017.78 1017.76 1017.72 1017.67 1017.61 1017.55 1017.53 1017.53 1017.57 1017.65 1017.76 1017.89 1018.03 1018.16 1018.28 1018.38
1018.41 1018.62 1018.90 1019.22 1019.53 1019.80 1019.99 1020.11 1020.15 1020.15 1020.13 1020.10 1020.07 1020.05 1020.00 1019.92 1019.78 1019.57 1019.30 1018.98 1018.62 1018.27 1017.95 1017.68 1017.47 1017.33 1017.23 1017.17 1017.12 1017.08 1017.03 1016.99 1016.95 1016.93 1016.93 1016.97 1017.04 1017.14 1017.25 1017.36 1017.48 1017.58 1017.66
1018.41 1018.59 1018.85 1019.15 1019.44 1019.69 1019.87 1019.97 1020.01 1020.02 1020.01 1020.02 1020.05 1020.09 1020.11 1020.10 1020.01 1019.83 1019.54 1019.18 1018.75 1018.30 1017.86 1017.47 1017.14 1016.90 1016.72 1016.60 1016.52 1016.47 1016.43 1016.39 1016.37 1016.37 1016.38 1016.42 1016.49 1016.58 1016.67 1016.77 1016.86 1016.94 1017.00
1018.37 1018.50 1018.73 1019.01 1019.28 1019.50 1019.66 1019.75 1019.78 1019.79 1019.80 1019.85 1019.92 1020.02 1020.11 1020.16 1020.12 1019.97 1019.70 1019.31 1018.83 1018.31 1017.78 1017.29 1016.86 1016.52 1016.27 1016.09 1015.97 1015.89 1015.84 1015.81 1015.80 1015.81 1015.84 1015.89 1015.96 1016.04 1016.14 1016.22 1016.30 1016.35 1016.39
1018.26 1018.36 1018.56 1018.80 1019.04 1019.24 1019.37 1019.44 1019.46 1019.46 1019.48 1019.54 1019.65 1019.79 1019.93 1020.04 1020.05 1019.94 1019.69 1019.30 1018.81 1018.25 1017.67 1017.11 1016.61 1016.19 1015.86 1015.62 1015.45 1015.34 1015.26 1015.22 1015.21 1015.22 1015.25 1015.32 1015.40 1015.49 1015.59 1015.67 1015.74 1015.78 1015.80
1018.10 1018.18 1018.34 1018.54 1018.74 1018.90 1019.00 1019.04 1019.03 1019.02 1019.03 1019.10 1019.22 1019.38 1019.55 1019.69 1019.74 1019.67 1019.46 1019.10 1018.63 1018.07 1017.48 1016.89 1016.36 1015.89 1015.51 1015.21 1014.98 1014.81 1014.70 1014.62 1014.58 1014.58 1014.61 1014.68 1014.77 1014.87 1014.98 1015.07 1015.15 1015.19 1015.20
1017.89 1017.95 1018.07 1018.24 1018.39 1018.51 1018.56 1018.56 1018.53 1018.49 1018.48 1018.52 1018.63 1018.79 1018.97 1019.12 1019.20 1019.17 1019.00 1018.69 1018.27 1017.76 1017.19 1016.63 1016.09 1015.61 1015.19 1014.84 1014.55 1014.32 1014.14 1014.01 1013.93 1013.89 1013.90 1013.96 1014.05 1014.16 1014.28 1014.39 1014.47 1014.53 1014.54
1017.64 1017.67 1017.77 1017.89 1018.00 1018.07 1018.08 1018.04 1017.96 1017.88 1017.84 1017.85 1017.92 1018.05 1018.21 1018.36 1018.45 1018.45 1018.33 1018.09 1017.74 1017.30 1016.81 1016.29 1015.79 1015.32 1014.89 1014.50 1014.16 1013.87 1013.61 1013.41 1013.26 1013.17 1013.14 1013.17 1013.24 1013.35 1013.48 1013.60 1013.70 1013.77 1013.80
1017.31 1017.34 1017.41 1017.50 1017.57 1017.60 1017.56 1017.48 1017.36 1017.24 1017.15 1017.11 1017.14 1017.22 1017.35 1017.47 1017.56 1017.58 1017.51 1017.34 1017.07 1016.72 1016.32 1015.89 1015.45 1015.01 1014.59 1014.19 1013.80 1013.45 1013.12 1012.84 1012.61 1012.45 1012.37 1012.35 1012.39 1012.48 1012.59 1012.71 1012.82 1012.90 1012.94
1016.88 1016.92 1016.98 1017.05 1017.09 1017.08 1017.02 1016.90 1016.75 1016.59 1016.46 1016.38 1016.36 1016.39 1016.46 1016.55 1016.62 1016.65 1016.61 1016.50 1016.31 1016.05 1015.75 1015.41 1015.05 1014.67 1014.27 1013.87 1013.46 1013.06 1012.67 1012.32 1012.01 1011.78 1011.62 1011.54 1011.53 1011.58 1011.66 1011.76 1011.85 1011.93 1011.97
1016.31 1016.37 1016.44 1016.50 1016.53 1016.52 1016.44 1016.31 1016.15 1015.98 1015.82 1015.70 1015.63 1015.61 1015.64 1015.68 1015.72 1015.74 1015.71 1015.63 1015.51 1015.33 1015.11 1014.86 1014.58 1014.26 1013.91 1013.53 1013.12 1012.69 1012.27 1011.86 1011.49 1011.19 1010.96 1010.81 1010.73 1010.71 1010.74 1010.79 1010.84 1010.88 1010.91
1015.58 1015.67 1015.77 1015.85 1015.90 1015.90 1015.84 1015.73 1015.57 1015.40 1015.24 1015.10 1015.01 1014.95 1014.92 1014.92 1014.92 1014.90 1014.87 1014.80 1014.71 1014.58 1014.43 1014.25 1014.03 1013.78 1013.48 1013.14 1012.76 1012.34 1011.90 1011.46 1011.06 1010.70 1010.40 1010.18 1010.02 1009.92 1009.86 1009.83 1009.81 1009.80 1009.78
1014.70 1014.84 1014.99 1015.12 1015.21 1015.24 1015.22 1015.15 1015.03 1014.88 1014.74 1014.60 1014.49 1014.40 1014.34 1014.29 1014.24 1014.18 1014.12 1014.03 1013.94 1013.83 1013.71 1013.58 1013.42 1013.22 1012.99 1012.70 1012.36 1011.98 1011.56 1011.13 1010.70 1010.31 1009.96 1009.66 1009.42 1009.22 1009.07 1008.94 1008.83 1008.73 1008.65
1013.73 1013.93 1014.13 1014.32 1014.47 1014.56 1014.60 1014.58 1014.51 1014.41 1014.29 1014.18 1014.07 1013.97 1013.88 1013.79 1013.70 1013.59 1013.47 1013.35 1013.23 1013.11 1012.99 1012.88 1012.75 1012.61 1012.43 1012.21 1011.93 1011.60 1011.23 1010.83 1010.41 1010.00 1009.61 1009.25 1008.93 1008.63 1008.37 1008.12 1007.90 1007.71 1007.54
1012.75 1013.01 1013.28 1013.53 1013.74 1013.90 1013.99 1014.03 1014.01 1013.96 1013.89 1013.81 1013.72 1013.63 1013.52 1013.40 1013.26 1013.10 1012.93 1012.76 1012.59 1012.44 1012.30 1012.18 1012.08 1011.97 1011.84 1011.68 1011.47 1011.21 1010.90 1010.55 1010.16 1009.75 1009.33 1008.92 1008.52 1008.13 1007.75 1007.40 1007.07 1006.77 1006.51
1011.89 1012.20 1012.52 1012.82 1013.08 1013.28 1013.42 1013.50 1013.53 1013.53 1013.50 1013.45 1013.39 1013.31 1013.21 1013.07 1012.90 1012.70 1012.48 1012.26 1012.04 1011.84 1011.67 1011.53 1011.42 1011.34 1011.25 1011.14 1011.00 1010.80 1010.56 1010.25 1009.90 1009.50 1009.07 1008.62 1008.16 1007.69 1007.22 1006.76 1006.33 1005.93 1005.58
1011.25 1011.59 1011.93 1012.25 1012.52 1012.73 1012.89 1012.99 1013.05 1013.07 1013.07 1013.06 1013.03 1012.98 1012.89 1012.76 1012.58 1012.36 1012.10 1011.83 1011.56 1011.32 1011.11 1010.95 1010.83 1010.74 1010.68 1010.61 1010.51 1010.37 1010.18 1009.93 1009.61 1009.23 1008.79 1008.31 1007.80 1007.27 1006.73 1006.19 1005.68 1005.21 1004.78
1010.90 1011.22 1011.55 1011.84 1012.09 1012.27 1012.40 1012.49 1012.53 1012.57 1012.59 1012.61 1012.61 1012.58 1012.53 1012.42 1012.25 1012.03 1011.76 1011.46 1011.16 1010.88 1010.63 1010.44 1010.30 1010.21 1010.15 1010.09 1010.03 1009.92 1009.77 1009.54 1009.25 1008.88 1008.44 1007.95 1007.42 1006.85 1006.27 1005.69 1005.13 1004.60 1004.13
1010.83 1011.10 1011.35 1011.57 1011.75 1011.86 1011.93 1011.96 1011.98 1012.00 1012.02 1012.06 1012.09 1012.11 1012.10 1012.03 1011.89 1011.69 1011.43 1011.13 1010.81 1010.50 1010.23 1010.01 1009.84 1009.73 1009.66 1009.60 1009.54 1009.45 1009.30 1009.09 1008.81 1008.45 1008.02 1007.53 1006.99 1006.42 1005.83 1005.24 1004.67 1004.13 1003.64
Thickness
5768 5767 5765 5764 5763 5762 5761 5760 5759 5758 5757 5756 5755 5754 5754 5753 5752 5751 5750 5749 5747 5745 5743 5742 5740 5739 5737 5736 5735 5734 5733 5732 5731 5730 5729 5728 5727 5726 5725 5724 5723 5722 5720
5768 5767 5765 5764 5763 5761 5761 5760 5759 5758 5757 5756 5755 5754 5754 5753 5752 5751 5750 5749 5747 5745 5743 5742 5740 5739 5738 5736 5735 5734 5734 5733 5732 5731 5730 5729 5728 5727 5725 5724 5723 5722 5720
5768 5766 5764 5763 5762 5761 5760 5759 5758 5757 5756 5755 5755 5754 5754 5753 5752 5751 5750 5748 5747 5745 5744 5742 5741 5739 5738 5737 5736 5735 5735 5734 5733 5732 5731 5730 5729 5727 5726 5724 5723 5722 5720
5767 5765 5763 5762 5762 5761 5760 5758 5757 5755 5754 5753 5753 5753 5753 5753 5752 5751 5750 5748 5747 5745 5744 5743 5741 5740 5738 5738 5737 5736 5735 5734 5734 5733 5732 5731 5729 5728 5726 5725 5723 5722 5721
5768 5766 5764 5763 5762 5761 5759 5758 5756 5755 5752 5752 5751 5751 5752 5752 5751 5750 5749 5748 5746 5745 5744 5743 5742 5740 5739 5738 5737 5737 5736 5735 5734 5734 5733 5732 5730 5728 5727 5725 5723 5723 5722
5768 5767 5765 5763 5761 5760 5758 5756 5754 5753 5752 5750 5751 5750 5750 5751 5750 5749 5749 5747 5746 5744 5743 5742 5741 5740 5739 5738 5738 5737 5737 5736 5735 5734 5734 5732 5730 5729 5727 5726 5724 5723 5722
5768 5767 5764 5762 5761 5759 5757 5756 5753 5751 5749 5749 5746 5745 5748 5749 5749 5748 5747 5746 5744 5743 5742 5741 5740 5738 5738 5737 5737 5737 5736 5736 5735 5734 5733 5732 5731 5729 5728 5726 5725 5724 5722
5768 5767 5764 5762 5760 5758 5756 5754 5752 5749 5747 5746 5743 5739 5737 5741 5745 5747 5745 5744 5743 5742 5740 5740 5739 5737 5736 5736 5736 5736 5736 5735 5735 5734 5733 5731 5730 5729 5727 5726 5725 5724 5723
5768 5767 5765 5762 5760 5757 5754 5753 5751 5747 5744 5744 5742 5738 5732 5731 5735 5741 5742 5742 5741 5740 5739 5738 5737 5736 5735 5734 5734 5734 5734 5734 5733 5733 5732 5730 5729 5728 5727 5726 5726 5724 5723
5768 5766 5764 5762 5759 5756 5754 5752 5750 5748 5744 5741 5740 5740 5738 5735 5730 5731 5736 5739 5739 5737 5737 5737 5735 5734 5733 5733 5732 5732 5732 5731 5731 5730 5730 5729 5728 5726 5726 5725 5725 5724 5723
5765 5764 5763 5760 5757 5755 5753 5751 5749 5746 5744 5742 5739 5738 5736 5733 5732 5728 5727 5731 5733 5734 5734 5734 5733 5732 5732 5731 5730 5730 5730 5729 5728 5728 5727 5727 5726 5725 5724 5723 5723 5722 5722
5763 5762 5760 5758 5756 5754 5751 5750 5748 5745 5744 5742 5740 5738 5735 5732 5729 5727 5725 5726 5727 5730 5732 5732 5731 5730 5730 5729 5728 5728 5728 5727 5726 5725 5725 5724 5724 5723 5722 5722 5722 5721 5721
5760 5760 5759 5756 5754 5752 5751 5749 5746 5745 5743 5741 5739 5738 5736 5734 5732 5729 5725 5724 5723 5726 5728 5729 5729 5728 5727 5726 5726 5725 5725 5724 5723 5722 5722 5721 5721 5720 5720 5720 5719 5719 5718
5760 5759 5757 5755 5753 5751 5749 5747 5745 5744 5742 5741 5740 5738 5736 5734 5732 5729 5726 5723 5720 5721 5722 5724 5726 5726 5725 5724 5724 5723 5722 5721 5720 5719 5719 5718 5717 5717 5716 5716 5716 5715 5715
5759 5757 5755 5753 5751 5750 5748 5746 5744 5743 5741 5740 5738 5737 5735 5733 5731 5729 5727 5724 5719 5716 5717 5720 5721 5723 5722 5721 5721 5720 5719 5718 5717 5716 5715 5714 5714 5713 5713 5712 5712 5711 5711
5758 5755 5753 5751 5749 5748 5747 5745 5743 5742 5740 5738 5737 5735 5733 5731 5729 5727 5725 5723 5720 5716 5714 5717 5718 5719 5719 5719 5718 5717 5716 5715 5714 5713 5712 5711 5710 5710 5709 5709 5708 5707 5707
5755 5753 5752 5749 5747 5746 5744 5742 5741 5739 5737 5736 5735 5733 5731 5730 5727 5726 5723 5721 5718 5716 5713 5715 5715 5716 5715 5714 5714 5713 5712 5712 5711 5710 5709 5708 5707 5707 5706 5705 5704 5703 5703
5753 5751 5749 5747 5745 5743 5741 5739 5738 5736 5734 5732 5731 5730 5728 5727 5725 5723 5720 5718 5716 5714 5712 5710 5711 5711 5710 5710 5709 5708 5708 5708 5707 5706 5705 5705 5704 5704 5703 5702 5701 5700 5699
5751 5749 5746 5744 5742 5741 5739 5737 5735 5733 5732 5730 5728 5726 5725 5723 5721 5719 5717 5715 5713 5712 5710 5708 5706 5706 5706 5705 5703 5703 5703 5703 5703 5703 5702 5701 5700 5699 5699 5698 5697 5696 5695
5748 5746 5744 5742 5740 5738 5737 5735 5733 5730 5728 5727 5725 5724 5722 5720 5718 5716 5714 5712 5710 5708 5705 5703 5701 5700 5700 5699 5697 5696 5696 5697 5696 5697 5697 5696 5696 5695 5694 5693 5692 5691 5690
5746 5743 5740 5738 5737 5735 5734 5732 5729 5727 5725 5723 5721 5720 5718 5717 5715 5713 5712 5709 5706 5703 5700 5698 5696 5694 5693 5692 5691 5690 5690 5690 5691 5691 5690 5691 5690 5690 5689 5688 5687 5687 5686
5741 5739 5736 5734 5733 5733 5731 5729 5726 5724 5721 5719 5717 5716 5714 5713 5711 5709 5708 5706 5703 5699 5696 5694 5692 5690 5689 5688 5686 5685 5683 5682 5683 5685 5684 5685 5685 5684 5685 5684 5683 5683 5682
5736 5734 5732 5731 5729 5728 5726 5724 5722 5719 5717 5715 5713 5711 5710 5709 5707 5705 5703 5700 5698 5696 5694 5692 5689 5687 5686 5685 5682 5680 5678 5676 5676 5678 5677 5679 5679 5679 5680 5680 5679 5678 5677
5732 5730 5728 5727 5725 5724 5722 5719 5717 5714 5711 5710 5708 5706 5704 5704 5703 5700 5697 5695 5694 5692 5691 5689 5687 5686 5684 5681 5678 5676 5674 5672 5672 5672 5670 5671 5674 5674 5676 5675 5675 5673 5672
5727 5725 5724 5722 5720 5719 5717 5714 5711 5708 5706 5704 5703 5702 5700 5699 5697 5694 5691 5689 5688 5688 5687 5685 5683 5681 5679 5676 5673 5670 5668 5666 5666 5667 5666 5664 5667 5668 5669 5670 5670 5668 5667
5721 5719 5718 5716 5715 5714 5712 5709 5705 5703 5700 5699 5698 5697 5694 5692 5690 5687 5685 5683 5682 5682 5681 5680 5677 5675 5673 5671 5668 5666 5664 5661 5660 5660 5662 5659 5661 5660 5662 5664 5663 5662 5660